Wind_Speed
12 11 10 8 8 8 7 6 4 2 1 1 1 2 3 3 4 4 5 5 5 5 5 6 6 6 7 6 6 6 6 6 5 5 5 5 5 5 6 5 4 3 3 3
14 12 11 11 10 9 8 6 6 4 3 2 1 1 1 1 2 3 4 4 4 4 4 5 5 5 6 6 5 5 5 5 5 5 5 5 5 5 4 3 3 2 2 2
15 14 15 13 12 11 9 9 8 7 5 3 2 1 0 0 1 1 2 3 3 4 4 3 4 4 4 4 4 4 4 4 5 5 5 5 4 3 3 2 2 2 1 1
19 18 17 15 14 12 11 11 10 8 6 5 4 3 4 3 2 1 0 0 1 2 3 2 2 2 3 3 3 3 3 4 4 4 5 4 4 3 3 2 2 2 1 1
21 19 19 18 16 15 14 12 12 11 9 8 7 6 6 6 3 2 2 2 1 1 1 1 1 0 1 1 2 2 3 3 3 3 3 3 3 3 2 2 1 1 0 0
23 22 21 20 19 18 16 14 12 11 10 10 9 8 7 7 6 4 4 3 3 3 2 1 1 1 1 0 1 1 1 2 2 2 2 2 2 2 2 2 2 2 1 1
26 24 24 23 21 20 18 15 14 13 13 13 11 10 8 7 7 7 6 5 5 4 3 2 2 3 3 2 2 2 2 1 1 0 0 1 2 2 2 2 2 2 2 2
27 26 25 24 23 21 20 19 17 15 14 14 13 12 10 8 8 8 8 7 7 6 5 4 4 4 4 4 3 4 4 4 3 3 3 3 3 3 4 4 4 3 3 3
27 28 27 26 25 24 22 22 20 19 17 16 16 14 12 10 9 9 9 9 9 8 8 7 6 6 6 6 6 6 6 6 5 5 5 5 5 5 5 5 5 5 5 5
29 29 29 29 28 27 26 24 23 21 20 19 18 16 14 13 12 11 11 11 10 10 10 9 9 8 8 8 8 8 8 7 7 7 6 6 6 6 6 6 6 6 6 7
29 29 30 31 31 29 28 27 26 24 23 20 19 18 16 14 13 13 13 12 13 13 12 11 11 11 11 10 10 10 10 9 9 9 8 8 8 8 8 8 8 8 8 9
30 30 31 31 31 31 30 29 28 27 26 24 22 21 19 17 15 15 14 14 14 15 14 13 13 12 12 12 12 12 12 12 11 11 11 10 10 10 11 11 10 10 11 11
32 32 31 31 32 32 32 31 30 28 27 27 24 22 21 20 17 16 16 16 17 17 16 16 16 15 15 15 15 14 14 14 14 13 13 13 13 13 13 13 13 13 13 13
33 33 33 31 30 32 32 32 32 31 30 29 27 24 23 22 20 19 18 18 18 18 18 18 18 18 18 18 17 17 16 16 16 15 15 15 15 15 15 15 15 15 16 17
34 34 34 34 33 33 33 33 33 33 33 31 28 27 25 24 22 21 21 21 21 20 20 19 20 20 19 19 19 19 18 18 18 17 17 17 17 17 17 17 17 17 18 18
34 35 35 35 35 35 35 34 34 33 33 33 32 30 27 26 25 24 22 22 22 22 21 21 21 21 21 21 21 20 20 20 20 20 20 20 20 19 19 18 18 18 19 18
34 35 35 34 35 35 37 35 35 34 33 33 33 31 29 29 28 26 25 24 24 23 22 22 23 23 22 22 22 23 22 22 22 21 21 21 21 20 20 20 19 20 21 21
35 35 36 35 35 37 36 36 36 36 36 35 35 34 33 31 30 28 27 26 26 26 25 24 23 23 22 22 22 23 23 23 22 22 22 22 22 22 23 23 23 23 23 22
36 35 36 36 36 37 37 36 36 37 37 37 37 36 35 33 32 31 29 28 28 27 27 26 25 25 25 25 25 25 26 25 24 24 24 24 24 26 25 25 25 25 25 25
36 36 36 36 35 35 36 36 35 36 37 36 36 37 36 34 35 34 32 31 30 30 29 29 28 28 28 28 28 28 28 28 28 27 27 27 28 29 28 28 28 29 29 28
36 37 36 36 36 36 37 36 34 36 36 35 35 36 36 36 36 35 34 34 34 32 32 31 30 31 31 30 31 31 31 31 31 31 31 31 32 32 32 32 32 32 32 32
36 36 36 35 35 37 37 35 35 35 35 35 35 35 36 36 35 34 34 34 34 34 33 33 32 33 33 33 33 33 33 33 33 33 33 34 34 34 34 34 35 35 35 34
36 36 36 37 37 37 36 35 34 34 35 35 35 35 36 36 35 35 34 34 34 35 34 34 34 34 34 35 34 35 35 35 35 36 36 37 37 37 37 37 37 38 37 37
35 35 36 36 36 36 36 35 34 34 34 34 34 34 34 35 34 35 34 34 35 35 36 36 36 35 35 36 36 36 36 37 37 38 38 38 38 39 39 40 40 39 39 38
34 34 35 36 35 35 36 35 35 34 34 33 32 33 33 34 34 34 34 34 35 35 36 36 37 36 37 38 38 37 37 37 38 38 39 38 38 39 40 40 40 40 39 38
31 32 33 34 34 35 35 34 34 34 33 32 33 33 33 34 34 34 35 36 37 37 38 38 38 38 38 39 38 38 38 38 39 39 39 39 39 39 39 39 39 39 39 39
Wind_Direction
215 213 211 209 200 195 192 187 189 194 190 125 65 53 42 54 66 66 60 52 54 56 67 74 85 89 91 93 99 110 115 118 118 120 125 126 128 134 135 135 138 144 155 165
216 217 218 215 210 207 206 204 205 215 224 211 220 40 35 64 65 64 68 67 61 56 61 69 80 92 95 94 98 107 111 114 112 111 121 124 125 130 122 126 128 146 160 181
218 222 222 220 220 219 218 216 216 222 235 243 250 289 280 332 9 42 69 71 76 70 63 64 82 96 100 101 104 111 113 109 110 108 110 124 121 121 123 114 114 139 152 165
220 224 224 223 227 225 225 226 225 226 241 264 262 266 263 262 274 295 302 86 94 80 67 58 70 85 101 109 110 114 117 117 115 111 108 94 92 99 102 93 105 127 115 120
223 224 225 226 229 228 230 232 234 235 244 254 260 256 262 263 265 266 266 258 266 289 1 32 44 59 89 99 102 118 123 117 117 110 98 85 79 76 67 59 68 74 356 18
226 225 226 229 230 231 233 237 240 242 247 255 259 258 256 261 260 261 260 255 263 272 282 301 311 286 262 242 141 155 138 113 101 94 82 61 42 28 27 38 33 14 356 351
228 228 228 230 232 234 234 236 243 249 253 258 261 258 255 252 256 259 259 254 251 258 257 272 272 282 277 261 245 234 224 215 220 211 11 355 354 347 343 349 356 351 342 337
230 231 231 231 232 236 235 232 237 242 250 259 263 259 259 251 248 254 259 254 246 246 249 261 271 274 271 257 255 247 243 243 247 254 269 290 303 312 317 318 319 314 322 325
230 232 232 232 232 234 236 236 238 242 247 253 259 263 261 254 250 251 256 255 248 247 254 260 267 269 264 256 255 255 252 250 255 262 274 282 292 298 303 307 302 299 300 306
230 232 233 234 234 234 235 238 237 238 244 250 257 259 263 258 253 255 256 255 252 251 252 258 261 261 260 258 256 254 256 257 259 262 273 283 288 292 295 298 294 289 291 294
231 233 235 234 234 235 236 238 239 241 244 247 253 256 260 260 254 254 254 251 252 255 254 256 258 259 259 258 255 253 255 256 258 260 267 275 281 288 291 288 285 283 285 288
231 233 235 236 235 235 236 238 240 243 247 249 250 253 257 259 256 253 250 250 251 253 255 255 256 259 258 255 254 255 257 257 260 261 264 270 276 283 289 287 282 282 284 286
232 233 234 235 236 235 236 238 240 242 247 249 250 253 255 259 256 251 250 252 255 254 254 255 256 257 255 254 256 258 258 259 261 262 263 267 275 280 285 285 284 282 286 287
234 235 234 233 236 238 237 238 238 240 243 247 249 250 253 256 253 251 251 252 254 254 256 256 256 257 255 255 256 258 258 260 262 263 264 268 275 280 281 282 283 282 286 287
235 236 236 235 236 238 240 241 240 241 242 245 248 250 250 252 251 252 253 253 253 254 253 255 256 256 255 257 258 258 256 258 262 263 264 268 273 277 279 280 280 282 286 286
237 238 238 238 237 239 240 241 241 242 243 245 247 248 249 250 250 250 250 252 254 254 253 253 253 253 254 256 256 255 254 257 260 262 266 267 270 275 280 278 277 280 282 283
238 239 240 242 240 241 242 240 241 242 243 245 247 248 249 250 249 249 249 250 252 255 255 253 252 253 254 255 253 253 254 258 261 263 266 270 270 273 277 275 276 277 280 281
239 240 242 242 242 242 244 243 242 243 244 245 246 247 248 249 248 248 250 251 251 252 253 253 253 254 255 256 257 256 259 261 264 266 268 270 269 271 275 274 275 277 279 280
239 240 241 242 244 245 245 245 245 245 245 246 247 248 249 249 249 249 248 249 249 249 249 251 252 253 256 258 259 260 261 262 264 266 269 271 272 272 273 275 275 275 276 278
239 239 241 242 242 245 247 246 246 247 247 246 246 247 248 249 249 248 248 248 248 248 247 248 250 252 255 257 260 261 262 262 264 266 268 270 272 272 273 276 274 274 275 277
239 240 241 242 243 245 245 246 246 246 247 247 247 247 248 248 248 248 248 249 248 248 248 248 250 253 255 257 259 260 260 260 263 264 266 270 273 274 276 275 275 275 276 278
238 239 240 242 243 245 245 246 246 247 247 247 247 248 248 248 248 248 248 248 248 247 248 249 251 253 255 258 259 260 261 262 264 266 268 271 272 273 274 276 276 276 278 279
238 238 239 241 243 244 245 245 246 247 247 247 247 248 248 249 249 249 248 248 249 249 250 252 253 254 256 258 260 261 262 263 265 266 268 270 272 272 272 274 275 276 276 277
239 239 241 242 243 243 245 246 245 245 246 247 248 248 248 247 248 248 248 249 249 250 251 253 255 256 257 259 261 261 261 263 265 268 270 271 271 272 272 273 274 274 274 275
240 240 242 244 244 243 244 245 245 246 246 246 246 246 245 246 247 247 248 248 249 251 253 254 255 256 258 260 260 261 262 264 266 268 270 271 271 271 271 271 273 272 272 272
241 242 243 243 243 244 245 245 245 246 245 245 245 245 245 247 248 249 250 249 249 252 253 254 256 258 259 259 259 261 263 264 266 268 269 270 272 273 272 272 273 273 272 273
Height
5902 5905 5907 5909 5911 5912 5913 5914 5915 5914 5913 5913 5912 5911 5911 5909 5908 5907 5906 5905 5904 5903 5903 5902 5901 5900 5900 5900 5899 5899 5899 5899 5899 5899 5899 5899 5899 5899 5899 5899 5899 5900 5900 5900
5901 5903 5905 5907 5908 5909 5911 5912 5914 5914 5913 5913 5912 5912 5911 5910 5909 5908 5907 5907 5906 5905 5904 5903 5902 5902 5901 5901 5901 5901 5900 5900 5900 5900 5900 5900 5900 5900 5900 5899 5899 5899 5899 5899
5899 5902 5902 5904 5906 5908 5909 5911 5912 5913 5912 5912 5912 5913 5912 5911 5910 5909 5908 5908 5907 5906 5905 5905 5904 5903 5903 5902 5902 5902 5902 5901 5901 5901 5901 5901 5901 5900 5900 5900 5899 5899 5899 5900
5895 5897 5900 5902 5904 5905 5907 5908 5909 5910 5911 5912 5912 5914 5912 5911 5910 5909 5909 5908 5907 5907 5906 5906 5905 5904 5904 5903 5903 5903 5903 5903 5902 5902 5902 5902 5901 5901 5900 5900 5900 5900 5900 5900
5892 5894 5896 5899 5901 5903 5904 5906 5907 5908 5909 5911 5911 5912 5913 5910 5910 5909 5909 5908 5908 5907 5907 5906 5906 5905 5905 5904 5904 5904 5903 5903 5903 5903 5902 5902 5902 5901 5901 5900 5900 5900 5899 5899
5888 5890 5893 5895 5897 5899 5901 5903 5904 5905 5907 5909 5909 5910 5911 5910 5909 5909 5908 5908 5907 5907 5907 5906 5906 5905 5905 5905 5904 5904 5904 5904 5903 5903 5903 5902 5902 5901 5901 5900 5900 5899 5899 5899
5882 5885 5888 5891 5893 5895 5898 5901 5903 5904 5905 5907 5907 5907 5909 5908 5908 5908 5907 5907 5907 5906 5906 5906 5906 5906 5905 5905 5904 5904 5904 5904 5903 5903 5903 5902 5902 5901 5901 5900 5900 5899 5899 5899
5878 5881 5883 5886 5889 5892 5894 5897 5900 5903 5904 5905 5903 5904 5906 5905 5905 5906 5906 5906 5905 5905 5905 5905 5905 5905 5905 5904 5904 5904 5904 5904 5903 5903 5902 5902 5901 5901 5900 5900 5899 5899 5898 5898
5873 5876 5879 5881 5884 5887 5889 5891 5895 5898 5899 5901 5901 5901 5902 5902 5903 5903 5904 5904 5904 5904 5904 5904 5904 5904 5904 5903 5903 5903 5903 5903 5903 5902 5901 5901 5900 5900 5899 5899 5898 5898 5897 5897
5866 5870 5873 5875 5879 5881 5884 5887 5890 5892 5894 5896 5898 5898 5899 5899 5900 5900 5901 5901 5902 5902 5902 5902 5902 5902 5902 5902 5902 5901 5901 5902 5901 5901 5901 5900 5899 5899 5898 5897 5896 5896 5896 5895
5860 5864 5867 5869 5872 5876 5879 5882 5884 5886 5889 5891 5894 5896 5895 5895 5896 5897 5897 5898 5899 5899 5899 5900 5900 5900 5899 5899 5899 5899 5900 5900 5900 5899 5899 5899 5898 5897 5896 5895 5895 5894 5894 5893
5852 5857 5860 5863 5866 5869 5872 5875 5878 5881 5882 5884 5888 5892 5891 5891 5892 5893 5893 5894 5895 5895 5896 5896 5896 5897 5897 5897 5897 5897 5897 5897 5897 5897 5897 5896 5896 5895 5894 5893 5893 5892 5891 5891
5845 5849 5853 5856 5860 5862 5864 5868 5871 5875 5877 5878 5882 5887 5885 5886 5887 5888 5889 5890 5891 5891 5892 5892 5893 5893 5893 5894 5894 5894 5894 5894 5894 5894 5894 5894 5893 5893 5892 5891 5890 5889 5888 5887
5838 5841 5846 5851 5853 5855 5857 5861 5864 5868 5870 5872 5875 5879 5880 5880 5882 5883 5884 5885 5886 5887 5887 5888 5888 5889 5889 5890 5890 5890 5891 5891 5891 5891 5891 5891 5890 5890 5889 5888 5886 5885 5884 5883
5829 5833 5836 5841 5844 5847 5850 5853 5856 5859 5862 5866 5868 5870 5873 5874 5876 5878 5879 5880 5881 5881 5882 5883 5884 5884 5885 5885 5886 5886 5887 5887 5887 5887 5887 5887 5886 5885 5885 5884 5883 5881 5880 5879
5820 5824 5828 5832 5835 5838 5841 5844 5848 5851 5854 5857 5860 5862 5866 5867 5869 5871 5872 5874 5875 5875 5876 5877 5878 5879 5880 5880 5880 5881 5881 5882 5882 5882 5882 5882 5881 5881 5880 5878 5877 5877 5876 5874
5813 5816 5820 5823 5827 5829 5832 5836 5839 5842 5845 5848 5851 5855 5858 5860 5862 5864 5866 5868 5869 5870 5871 5872 5872 5873 5874 5875 5874 5875 5876 5876 5877 5877 5877 5876 5876 5875 5875 5873 5872 5871 5870 5869
5804 5808 5811 5815 5818 5820 5826 5827 5830 5833 5836 5839 5842 5846 5849 5852 5854 5856 5859 5860 5862 5863 5864 5865 5866 5867 5868 5869 5869 5870 5870 5870 5871 5871 5871 5870 5870 5869 5869 5867 5866 5866 5864 5863
5795 5798 5802 5805 5808 5811 5815 5818 5821 5824 5827 5830 5833 5836 5840 5843 5846 5848 5851 5853 5854 5856 5857 5858 5859 5861 5862 5862 5863 5863 5864 5864 5864 5865 5865 5864 5864 5863 5862 5861 5860 5859 5858 5856
5785 5789 5793 5796 5799 5802 5806 5808 5811 5815 5817 5820 5823 5827 5830 5834 5837 5840 5842 5844 5846 5847 5849 5851 5852 5853 5854 5855 5856 5856 5857 5857 5857 5858 5858 5857 5857 5855 5854 5854 5852 5851 5850 5848
5776 5779 5782 5785 5789 5792 5796 5799 5802 5807 5808 5811 5814 5817 5821 5824 5827 5830 5833 5835 5837 5838 5840 5842 5844 5845 5846 5847 5848 5848 5849 5849 5849 5850 5849 5849 5848 5847 5846 5845 5844 5843 5842 5840
5766 5770 5773 5776 5779 5784 5786 5789 5793 5795 5798 5801 5804 5807 5810 5814 5817 5820 5823 5825 5827 5829 5831 5832 5835 5836 5837 5838 5839 5840 5840 5840 5841 5840 5840 5840 5839 5838 5837 5836 5835 5833 5832 5831
5757 5760 5763 5767 5771 5773 5776 5779 5782 5785 5788 5791 5794 5797 5801 5804 5807 5810 5813 5815 5817 5820 5821 5823 5825 5826 5828 5829 5830 5830 5831 5831 5830 5830 5830 5830 5829 5828 5827 5826 5825 5824 5823 5822
5747 5751 5754 5757 5760 5764 5767 5769 5772 5775 5778 5781 5784 5787 5790 5794 5797 5800 5802 5805 5807 5809 5811 5813 5814 5815 5817 5818 5819 5820 5820 5820 5820 5820 5820 5819 5818 5817 5816 5815 5814 5814 5813 5812
5738 5741 5744 5747 5751 5754 5757 5760 5763 5765 5768 5771 5774 5777 5780 5783 5786 5789 5792 5794 5797 5799 5801 5802 5803 5804 5806 5807 5808 5809 5809 5809 5809 5809 5809 5808 5807 5806 5805 5804 5803 5803 5802 5801
5730 5732 5735 5738 5741 5744 5747 5750 5752 5755 5758 5761 5764 5767 5770 5773 5776 5778 5781 5783 5786 5787 5789 5790 5792 5793 5794 5795 5796 5797 5797 5797 5797 5797 5797 5796 5796 5795 5794 5793 5792 5791 5791 5790